Weather in Vortsa

Russia / Udmurt Republic     58°06′12″N   52°09′04″E
temp.,
°C
wind,
m/s
gust,
m/s
humid.,
%
clouds,
%
prec.,
mm/h
press.,
hPa
HPBL,
m
24 january, mon
mon2401:00−8sw3696100 0.9 1034313
04:00−10sw249879 1.0 103574
07:00−16wsw22100100 0.0 103622
10:00−17wsw23100100 0.1 103643
13:00−11sw359594 0.1 1036180
16:00−12sw249753 0.1 103671
19:00−15sw3897100 0.0 1035113
22:00−14sw4109899 0.0 1034165
25 january, tue
tue2501:00−14sw41197100 0.0 1033185
04:00−14sw41197100 0.0 1032200
07:00−15sw41198100 0.0 1031177
10:00−16sw410100100 0.0 1030158
13:00−11sw489581 0.0 1027216
16:00−12ssw38937 0.0 1027169
19:00−14ssw411967 0.0 1025194
22:00−16ssw310945 0.0 1025180
26 january, wed
wed2601:00−18s389717 0.0 1024123
04:00−19s399872 0.0 1024130
07:00−17s399777 0.0 1022180
10:00−16s4119787 0.0 1022228
13:00−12s4994100 0.0 1021299
16:00−11s379597 0.1 1020268
19:00−12sse3796100 0.1 1019234
22:00−11sse2697100 0.2 1018180
27 january, thu
thu2701:00−10sse1496100 0.6 1017208
04:00−10s1496100 1.3 1017189
07:00−12ssw1297100 0.3 101737
10:00−12ssw269689 0.3 1018201
13:00−10sw3592100 0.1 1018316
16:00−12s119796 0.1 101910
19:00−14s259998 0.1 101974
22:00−16s239987 0.1 101935
28 january, fri
fri2801:00−17s2210084 0.1 101933
04:00−18s2310094 0.1 101845
07:00−17s249987 0.1 101874
10:00−15s249692 0.2 1018129
13:00−12ssw2392100 0.1 1017246
16:00−13s119787 0.1 101711
19:00−18sse2210089 0.0 101710
22:00−21sse11100100 0.1 10179